Flag for United Kingdom Weather past 2 weeks in York, England, United Kingdom

Now
37 °F

Clear.


Feels Like: 33 °F
Forecast: 38 / 63 °F
Wind: 6 mph from Northwest

Location: Linton-On-Ouse

Current Time: Apr 22, 2015 at 4:54:38 AM

Latest Report: Apr 22, 2015 at 3:50 AM


Visibility: 4 mi

Pressure: 30.57 "Hg

Humidity: 93%

Dew point: 36 °F

Location of YorkLocation

Historic Weather in York — Graph

°F

York temperature yesterday

Maximum temperature yesterday: 64 °F (at 3:50 PM)
Minimum temperature yesterday: 34 °F (at 4:50 AM)
Average temperature yesterday: 50 °F

Past Weeks' High & Low Weather Summary

 TemperatureHumidityPressure
High66 °F (Apr 10, 3:50 PM)100% (Apr 7, 4:50 AM)30.60 "Hg (Apr 7, 4:50 AM)
Low32 °F (Apr 18, 3:50 AM)35% (Apr 11, 1:50 PM)29.68 "Hg (Apr 11, 6:50 AM)
Average48 °F71%30.26 "Hg
* Reported Apr 7 2:50 AM — Apr 22 2:50 AM, York, Weather by CustomWeather, © 2015

Note: Actual official high and low records may vary slightly from our data, if they occured in-between our weather recording intervals... More about our weather records

Advertising

York weather history for previous 24 hours

 ConditionsComfort  
Time TempWeatherWind HumidityBarometerVisibility
2:50 AM
Wed, Apr 22
39 °FClear.3 mph93%30.57 "HgN/A
1:50 AM39 °FClear.3 mph93%30.60 "HgN/A
12:50 AM41 °FClear.3 mph87%30.60 "HgN/A
11:50 PM
Tue, Apr 21
45 °FClear.3 mph76%30.60 "HgN/A
10:50 PM45 °FClear.3 mph76%30.60 "HgN/A
9:50 PM50 °FClear.5 mph62%30.60 "HgN/A
8:50 PM54 °FSunny.7 mph54%30.57 "HgN/A
7:50 PM57 °FSunny.8 mph55%30.57 "HgN/A
6:50 PM61 °FSunny.8 mph48%30.57 "HgN/A
5:50 PM64 °FSunny.3 mph40%30.54 "HgN/A
4:50 PM64 °FPassing clouds.3 mph46%30.54 "HgN/A
3:50 PM64 °FPassing clouds.2 mph46%30.57 "HgN/A
2:50 PM63 °FPassing clouds.5 mph49%30.57 "HgN/A
1:50 PM63 °FPassing clouds.3 mph49%30.57 "HgN/A
12:50 PM61 °FPassing clouds.3 mph52%30.60 "HgN/A
11:50 AM61 °FPassing clouds.5 mph48%30.60 "HgN/A
10:50 AM57 °FPassing clouds.2 mph55%30.60 "HgN/A
9:50 AM52 °FSunny.6 mph67%30.60 "Hg10 mi
8:50 AM46 °FSunny.5 mph76%30.60 "Hg10 mi
7:50 AM41 °FSunny.3 mph87%30.57 "Hg10 mi
6:50 AM36 °FPassing clouds.5 mph93%30.57 "HgN/A
5:50 AM34 °FFog.3 mph100%30.57 "Hg0 mi
4:50 AM34 °FPassing clouds.3 mph93%30.54 "Hg1 mi
Weather by CustomWeather, © 2015

See weather overviewHow to use our weather pages